Time,TemperatureF,DewpointF,PressureIn,WindDirection,WindDirectionDegrees,WindSpeedMPH,WindSpeedGustMPH,Humidity,HourlyPrecipIn,Conditions,Clouds,dailyrainin,SoftwareType,DateUTC
2013-03-24 00:00:00,35.1,23.4,29.92,NNE,23,2.0,2.0,62,0.00,,,0.00,WUHU216HW,2013-03-24 04:00:00,
2013-03-24 00:05:00,35.1,23.4,29.92,NNE,23,3.1,3.1,62,0.00,,,0.00,WUHU216HW,2013-03-24 04:05:00,
2013-03-24 00:30:00,34.6,23.9,29.92,NNE,23,0.9,0.9,65,0.00,,,0.00,WUHU216HW,2013-03-24 04:30:00,
2013-03-24 00:35:00,34.6,23.9,29.92,North,0,2.5,2.5,65,0.00,,,0.00,WUHU216HW,2013-03-24 04:35:00,
2013-03-24 00:40:00,34.6,23.9,29.92,North,0,2.5,2.5,65,0.00,,,0.00,WUHU216HW,2013-03-24 04:40:00,
2013-03-24 01:00:00,34.2,24.7,29.92,NNE,23,3.1,3.1,68,0.00,,,0.00,WUHU216HW,2013-03-24 05:00:00,
2013-03-24 01:05:00,34.0,24.1,29.92,NNE,23,1.8,3.1,67,0.00,,,0.00,WUHU216HW,2013-03-24 05:05:00,
2013-03-24 01:10:00,34.0,24.1,29.92,NNE,23,1.8,1.8,67,0.00,,,0.00,WUHU216HW,2013-03-24 05:10:00,
2013-03-24 01:30:00,34.2,25.4,29.90,North,0,4.0,4.0,70,0.00,,,0.00,WUHU216HW,2013-03-24 05:30:00,
2013-03-24 01:35:00,34.2,25.4,29.90,North,0,4.0,4.0,70,0.00,,,0.00,WUHU216HW,2013-03-24 05:35:00,
2013-03-24 01:40:00,34.2,25.4,29.90,North,0,4.0,4.0,70,0.00,,,0.00,WUHU216HW,2013-03-24 05:40:00,
2013-03-24 02:00:00,34.0,25.6,29.90,North,0,3.6,3.6,71,0.00,,,0.00,WUHU216HW,2013-03-24 06:00:00,
2013-03-24 02:05:00,34.0,25.6,29.90,ENE,68,2.5,3.6,71,0.00,,,0.00,WUHU216HW,2013-03-24 06:05:00,
2013-03-24 02:10:00,34.0,25.6,29.90,ENE,68,2.5,2.5,71,0.00,,,0.00,WUHU216HW,2013-03-24 06:10:00,
2013-03-24 02:30:00,34.0,25.8,29.91,NNE,23,3.4,3.4,72,0.00,,,0.00,WUHU216HW,2013-03-24 06:30:00,
2013-03-24 02:35:00,34.0,26.2,29.91,NE,45,4.0,4.0,73,0.00,,,0.00,WUHU216HW,2013-03-24 06:35:00,
2013-03-24 02:40:00,34.0,26.2,29.91,NE,45,4.0,4.0,73,0.00,,,0.00,WUHU216HW,2013-03-24 06:40:00,
2013-03-24 03:00:00,33.8,26.0,29.91,NE,45,3.4,3.4,73,0.00,,,0.00,WUHU216HW,2013-03-24 07:00:00,
2013-03-24 03:05:00,33.8,25.7,29.91,NE,45,5.6,5.6,72,0.00,,,0.00,WUHU216HW,2013-03-24 07:05:00,
2013-03-24 03:10:00,33.8,25.7,29.91,NE,45,5.6,5.6,72,0.00,,,0.00,WUHU216HW,2013-03-24 07:10:00,
2013-03-24 03:30:00,34.2,26.6,29.91,North,0,6.0,6.0,74,0.00,,,0.00,WUHU216HW,2013-03-24 07:30:00,
2013-03-24 03:35:00,34.2,26.4,29.90,ENE,68,5.4,6.3,73,0.00,,,0.00,WUHU216HW,2013-03-24 07:35:00,
2013-03-24 03:40:00,34.2,26.4,29.90,ENE,68,5.4,6.3,73,0.00,,,0.00,WUHU216HW,2013-03-24 07:40:00,
2013-03-24 04:00:00,34.2,27.0,29.90,East,90,1.3,1.3,75,0.00,,,0.00,WUHU216HW,2013-03-24 08:00:00,
2013-03-24 04:05:00,34.2,27.0,29.90,NE,45,1.3,1.3,75,0.00,,,0.00,WUHU216HW,2013-03-24 08:05:00,
2013-03-24 04:10:00,34.2,27.0,29.90,NE,45,1.3,1.3,75,0.00,,,0.00,WUHU216HW,2013-03-24 08:10:00,
2013-03-24 04:30:00,34.2,26.6,29.87,NNE,23,8.5,8.5,74,0.00,,,0.00,WUHU216HW,2013-03-24 08:30:00,
2013-03-24 04:35:00,34.2,26.6,29.88,NNE,23,8.5,8.5,74,0.00,,,0.00,WUHU216HW,2013-03-24 08:35:00,
2013-03-24 04:40:00,34.2,26.6,29.88,NNE,23,8.5,8.5,74,0.00,,,0.00,WUHU216HW,2013-03-24 08:40:00,
2013-03-24 05:00:00,34.2,26.4,29.87,NNE,23,5.6,5.6,73,0.00,,,0.00,WUHU216HW,2013-03-24 09:00:00,
2013-03-24 05:05:00,34.2,26.4,29.87,North,0,4.5,5.6,73,0.00,,,0.00,WUHU216HW,2013-03-24 09:05:00,
2013-03-24 05:10:00,34.2,26.4,29.87,North,0,4.5,4.5,73,0.00,,,0.00,WUHU216HW,2013-03-24 09:10:00,
2013-03-24 05:30:00,33.8,26.0,29.86,NNE,23,1.6,1.6,73,0.00,,,0.00,WUHU216HW,2013-03-24 09:30:00,
2013-03-24 05:35:00,33.8,26.0,29.86,North,0,1.1,2.5,73,0.00,,,0.00,WUHU216HW,2013-03-24 09:35:00,
2013-03-24 05:40:00,33.8,26.0,29.86,North,0,1.1,2.5,73,0.00,,,0.00,WUHU216HW,2013-03-24 09:40:00,
2013-03-24 06:00:00,33.7,25.8,29.86,NNE,23,2.9,2.9,73,0.00,,,0.00,WUHU216HW,2013-03-24 10:00:00,
2013-03-24 06:05:00,33.7,25.8,29.86,North,0,0.4,2.9,73,0.00,,,0.00,WUHU216HW,2013-03-24 10:05:00,
2013-03-24 06:10:00,33.7,25.8,29.86,North,0,0.4,2.9,73,0.00,,,0.00,WUHU216HW,2013-03-24 10:10:00,
2013-03-24 06:30:00,32.8,27.3,29.84,North,0,3.4,3.4,80,0.00,,,0.00,WUHU216HW,2013-03-24 10:30:00,
2013-03-24 06:35:00,32.6,27.1,29.84,North,0,3.4,3.4,80,0.00,,,0.00,WUHU216HW,2013-03-24 10:35:00,
2013-03-24 06:40:00,32.6,27.1,29.84,North,0,3.4,3.4,80,0.00,,,0.00,WUHU216HW,2013-03-24 10:40:00,
2013-03-24 07:00:00,31.7,26.8,29.84,North,0,2.9,2.9,82,0.00,,,0.00,WUHU216HW,2013-03-24 11:00:00,
2013-03-24 07:05:00,31.7,26.8,29.84,North,0,2.5,4.3,82,0.00,,,0.00,WUHU216HW,2013-03-24 11:05:00,
2013-03-24 07:10:00,31.7,26.8,29.84,North,0,2.5,4.3,82,0.00,,,0.00,WUHU216HW,2013-03-24 11:10:00,
2013-03-24 07:30:00,31.5,27.0,29.83,North,0,4.9,4.9,83,0.00,,,0.00,WUHU216HW,2013-03-24 11:30:00,
2013-03-24 07:35:00,31.5,27.0,29.83,NNE,23,7.2,7.2,83,0.00,,,0.00,WUHU216HW,2013-03-24 11:35:00,
2013-03-24 07:40:00,31.5,27.0,29.83,NNE,23,7.2,7.2,83,0.00,,,0.00,WUHU216HW,2013-03-24 11:40:00,
2013-03-24 08:00:00,31.0,27.3,29.82,North,0,5.4,5.4,86,0.00,,,0.00,WUHU216HW,2013-03-24 12:00:00,
2013-03-24 08:05:00,31.0,27.3,29.82,North,0,4.7,5.4,86,0.00,,,0.00,WUHU216HW,2013-03-24 12:05:00,
2013-03-24 08:10:00,31.0,27.3,29.82,North,0,4.7,5.4,86,0.00,,,0.00,WUHU216HW,2013-03-24 12:10:00,
2013-03-24 08:30:00,30.8,27.4,29.80,NNE,23,4.3,4.3,87,0.00,,,0.00,WUHU216HW,2013-03-24 12:30:00,
2013-03-24 08:35:00,30.8,27.4,29.81,NNE,23,2.9,4.3,87,0.00,,,0.00,WUHU216HW,2013-03-24 12:35:00,
2013-03-24 08:40:00,30.8,27.4,29.81,NNE,23,2.9,3.6,87,0.00,,,0.00,WUHU216HW,2013-03-24 12:40:00,
2013-03-24 09:00:00,31.0,27.9,29.79,North,0,3.4,3.4,88,0.00,,,0.00,WUHU216HW,2013-03-24 13:00:00,
2013-03-24 09:05:00,31.0,27.9,29.79,NNE,23,0.4,3.4,88,0.00,,,0.00,WUHU216HW,2013-03-24 13:05:00,
2013-03-24 09:10:00,31.0,27.9,29.79,NNE,23,0.4,3.4,88,0.00,,,0.00,WUHU216HW,2013-03-24 13:10:00,
2013-03-24 09:30:00,31.1,28.1,29.78,ESE,113,7.2,7.2,88,0.00,,,0.00,WUHU216HW,2013-03-24 13:30:00,
2013-03-24 09:31:00,31.1,28.1,29.77,NNE,23,7.6,7.6,88,0.00,,,0.00,WUHU216HW,2013-03-24 13:31:00,
2013-03-24 09:35:00,31.1,28.1,29.77,NNE,23,7.6,7.6,88,0.00,,,0.00,WUHU216HW,2013-03-24 13:35:00,
2013-03-24 09:40:00,31.1,28.1,29.77,NNE,23,7.6,7.6,88,0.00,,,0.00,WUHU216HW,2013-03-24 13:40:00,
2013-03-24 10:00:00,31.7,28.3,29.75,NE,45,5.8,5.8,87,0.00,,,0.00,WUHU216HW,2013-03-24 14:00:00,
2013-03-24 10:05:00,31.7,28.3,29.75,East,90,6.0,6.0,87,0.00,,,0.00,WUHU216HW,2013-03-24 14:05:00,
2013-03-24 10:10:00,31.7,28.3,29.75,East,90,6.0,6.0,87,0.00,,,0.00,WUHU216HW,2013-03-24 14:10:00,
2013-03-24 10:30:00,32.8,29.0,29.74,NNE,23,6.3,6.3,86,0.00,,,0.00,WUHU216HW,2013-03-24 14:30:00,
2013-03-24 10:35:00,32.8,29.0,29.74,NNW,338,5.6,6.3,86,0.00,,,0.00,WUHU216HW,2013-03-24 14:35:00,
2013-03-24 10:40:00,32.8,29.0,29.74,NNW,338,5.6,5.6,86,0.00,,,0.00,WUHU216HW,2013-03-24 14:40:00,
2013-03-24 11:00:00,34.0,29.9,29.72,ENE,68,6.5,6.5,85,0.00,,,0.00,WUHU216HW,2013-03-24 15:00:00,
2013-03-24 11:05:00,34.0,29.9,29.72,ENE,68,7.2,7.2,85,0.00,,,0.00,WUHU216HW,2013-03-24 15:05:00,
2013-03-24 11:10:00,34.0,29.9,29.72,ENE,68,7.2,7.2,85,0.00,,,0.00,WUHU216HW,2013-03-24 15:10:00,
2013-03-24 11:30:00,34.9,30.5,29.71,ENE,68,6.3,6.3,84,0.00,,,0.00,WUHU216HW,2013-03-24 15:30:00,
2013-03-24 11:35:00,35.1,30.7,29.71,NE,45,5.1,6.7,84,0.00,,,0.00,WUHU216HW,2013-03-24 15:35:00,
2013-03-24 11:40:00,35.1,30.7,29.71,NE,45,5.1,6.7,84,0.00,,,0.00,WUHU216HW,2013-03-24 15:40:00,
2013-03-24 12:00:00,35.1,30.1,29.70,NE,45,4.7,4.7,82,0.02,,,0.00,WUHU216HW,2013-03-24 16:00:00,
2013-03-24 12:05:00,35.1,30.1,29.70,East,90,5.4,9.2,82,0.02,,,0.02,WUHU216HW,2013-03-24 16:05:00,
2013-03-24 12:10:00,35.1,30.1,29.70,East,90,5.4,9.2,82,0.02,,,0.02,WUHU216HW,2013-03-24 16:10:00,
2013-03-24 12:30:00,35.1,30.1,29.70,SE,135,8.1,8.1,82,0.03,,,0.02,WUHU216HW,2013-03-24 16:30:00,
2013-03-24 12:35:00,35.1,30.1,29.70,ENE,68,7.2,9.4,82,0.03,,,0.03,WUHU216HW,2013-03-24 16:35:00,
2013-03-24 12:40:00,35.1,30.1,29.70,ENE,68,7.2,9.4,82,0.03,,,0.03,WUHU216HW,2013-03-24 16:40:00,
2013-03-24 13:00:00,34.9,29.9,29.68,ENE,68,4.9,4.9,82,0.01,,,0.03,WUHU216HW,2013-03-24 17:00:00,
2013-03-24 13:05:00,34.7,29.7,29.68,NNE,23,6.3,10.5,82,0.01,,,0.03,WUHU216HW,2013-03-24 17:05:00,
2013-03-24 13:10:00,34.7,29.7,29.68,NNE,23,6.3,10.5,82,0.01,,,0.03,WUHU216HW,2013-03-24 17:10:00,
2013-03-24 13:30:00,35.3,30.6,29.66,East,90,2.5,2.5,83,0.01,,,0.03,WUHU216HW,2013-03-24 17:30:00,
2013-03-24 13:31:00,35.3,30.6,29.66,East,90,5.6,5.6,83,0.01,,,0.04,WUHU216HW,2013-03-24 17:31:00,
2013-03-24 13:35:00,35.3,30.6,29.66,East,90,5.6,5.6,83,0.01,,,0.04,WUHU216HW,2013-03-24 17:35:00,
2013-03-24 13:40:00,35.3,30.6,29.66,East,90,5.6,5.6,83,0.01,,,0.04,WUHU216HW,2013-03-24 17:40:00,
2013-03-24 14:00:00,35.6,31.0,29.62,NNE,23,7.6,7.6,83,0.02,,,0.04,WUHU216HW,2013-03-24 18:00:00,
2013-03-24 14:05:00,35.6,31.0,29.62,ENE,68,9.2,9.2,83,0.02,,,0.05,WUHU216HW,2013-03-24 18:05:00,
2013-03-24 14:10:00,35.6,31.0,29.62,ENE,68,9.2,9.2,83,0.02,,,0.05,WUHU216HW,2013-03-24 18:10:00,
2013-03-24 14:30:00,36.2,31.8,29.56,NE,45,4.3,4.3,84,0.01,,,0.05,WUHU216HW,2013-03-24 18:30:00,
2013-03-24 14:31:00,36.2,31.8,29.56,NNE,23,6.5,6.5,84,0.01,,,0.05,WUHU216HW,2013-03-24 18:31:00,
2013-03-24 14:35:00,36.2,31.8,29.56,NNE,23,6.5,6.5,84,0.01,,,0.05,WUHU216HW,2013-03-24 18:35:00,
2013-03-24 14:40:00,36.2,31.8,29.56,NNE,23,6.5,6.5,84,0.01,,,0.05,WUHU216HW,2013-03-24 18:40:00,
2013-03-24 15:00:00,36.2,31.8,29.54,ESE,113,13.6,13.6,84,0.01,,,0.05,WUHU216HW,2013-03-24 19:00:00,
2013-03-24 15:05:00,36.2,31.8,29.54,ESE,113,10.5,13.6,84,0.01,,,0.06,WUHU216HW,2013-03-24 19:05:00,
2013-03-24 15:10:00,36.2,31.8,29.54,ESE,113,10.5,11.2,84,0.01,,,0.06,WUHU216HW,2013-03-24 19:10:00,
2013-03-24 15:30:00,36.0,31.3,29.54,SSE,158,11.4,11.4,83,0.01,,,0.06,WUHU216HW,2013-03-24 19:30:00,
2013-03-24 15:35:00,35.8,31.2,29.54,East,90,13.0,13.0,83,0.01,,,0.06,WUHU216HW,2013-03-24 19:35:00,
2013-03-24 15:40:00,35.8,31.2,29.54,East,90,13.0,13.0,83,0.01,,,0.06,WUHU216HW,2013-03-24 19:40:00,
2013-03-24 16:00:00,35.3,30.2,29.52,NE,45,4.0,4.0,82,0.00,,,0.06,WUHU216HW,2013-03-24 20:00:00,
2013-03-24 16:05:00,35.3,30.2,29.52,NE,45,6.9,6.9,82,0.00,,,0.06,WUHU216HW,2013-03-24 20:05:00,
2013-03-24 16:10:00,35.3,30.2,29.52,NE,45,6.9,6.9,82,0.00,,,0.06,WUHU216HW,2013-03-24 20:10:00,
2013-03-24 16:30:00,34.7,30.1,29.50,NE,45,6.9,6.9,83,0.00,,,0.06,WUHU216HW,2013-03-24 20:30:00,
2013-03-24 16:35:00,34.7,30.1,29.50,NE,45,4.3,6.9,83,0.00,,,0.06,WUHU216HW,2013-03-24 20:35:00,
2013-03-24 16:40:00,34.7,30.1,29.50,NE,45,4.3,6.9,83,0.00,,,0.06,WUHU216HW,2013-03-24 20:40:00,
2013-03-24 17:00:00,34.6,30.2,29.50,ESE,113,11.0,11.0,84,0.00,,,0.06,WUHU216HW,2013-03-24 21:00:00,
2013-03-24 17:05:00,34.6,30.2,29.50,East,90,6.9,11.0,84,0.00,,,0.06,WUHU216HW,2013-03-24 21:05:00,
2013-03-24 17:10:00,34.6,30.2,29.50,East,90,6.9,11.0,84,0.00,,,0.06,WUHU216HW,2013-03-24 21:10:00,
2013-03-24 17:30:00,34.0,29.6,29.52,East,90,8.5,8.5,84,0.00,,,0.06,WUHU216HW,2013-03-24 21:30:00,
2013-03-24 17:31:00,34.0,29.6,29.52,ESE,113,7.2,7.2,84,0.00,,,0.06,WUHU216HW,2013-03-24 21:31:00,
2013-03-24 17:35:00,34.0,29.6,29.52,ESE,113,7.2,8.5,84,0.00,,,0.06,WUHU216HW,2013-03-24 21:35:00,
2013-03-24 17:40:00,34.0,29.6,29.52,ESE,113,7.2,7.2,84,0.00,,,0.06,WUHU216HW,2013-03-24 21:40:00,
2013-03-24 18:00:00,32.9,29.4,29.49,NNE,23,9.2,9.2,87,0.00,,,0.06,WUHU216HW,2013-03-24 22:00:00,
2013-03-24 18:05:00,32.9,29.4,29.49,SSW,203,4.0,9.2,87,0.00,,,0.06,WUHU216HW,2013-03-24 22:05:00,
2013-03-24 18:10:00,32.9,29.4,29.49,SSW,203,4.0,8.9,87,0.00,,,0.06,WUHU216HW,2013-03-24 22:10:00,
2013-03-24 18:30:00,32.4,29.3,29.49,NE,45,3.4,3.4,88,0.00,,,0.06,WUHU216HW,2013-03-24 22:30:00,
2013-03-24 18:31:00,32.4,29.3,29.49,NE,45,5.8,5.8,88,0.00,,,0.06,WUHU216HW,2013-03-24 22:31:00,
2013-03-24 18:35:00,32.4,29.3,29.49,NE,45,5.8,5.8,88,0.00,,,0.06,WUHU216HW,2013-03-24 22:35:00,
2013-03-24 18:40:00,32.4,29.3,29.49,NE,45,5.8,5.8,88,0.00,,,0.06,WUHU216HW,2013-03-24 22:40:00,
2013-03-24 19:00:00,31.9,29.3,29.49,North,0,4.7,4.7,90,0.00,,,0.06,WUHU216HW,2013-03-24 23:00:00,
2013-03-24 19:05:00,31.7,28.9,29.49,NE,45,4.0,4.7,89,0.00,,,0.06,WUHU216HW,2013-03-24 23:05:00,
2013-03-24 19:10:00,31.7,28.9,29.49,NE,45,4.0,4.0,89,0.00,,,0.06,WUHU216HW,2013-03-24 23:10:00,
2013-03-24 19:30:00,31.3,28.5,29.50,North,0,1.8,1.8,89,0.00,,,0.06,WUHU216HW,2013-03-24 23:30:00,
2013-03-24 19:35:00,31.3,28.5,29.50,NE,45,5.4,5.4,89,0.00,,,0.06,WUHU216HW,2013-03-24 23:35:00,
2013-03-24 19:40:00,31.3,28.5,29.50,NE,45,5.4,5.4,89,0.00,,,0.06,WUHU216HW,2013-03-24 23:40:00,
2013-03-24 20:00:00,31.0,28.4,29.50,NE,45,2.5,2.5,90,0.00,,,0.06,WUHU216HW,2013-03-25 00:00:00,
2013-03-24 20:05:00,31.0,28.4,29.50,NE,45,5.4,5.4,90,0.00,,,0.06,WUHU216HW,2013-03-25 00:05:00,
2013-03-24 20:10:00,31.0,28.4,29.50,NE,45,5.4,5.4,90,0.00,,,0.06,WUHU216HW,2013-03-25 00:10:00,
2013-03-24 20:30:00,30.4,28.2,29.51,North,0,8.3,8.3,91,0.00,,,0.06,WUHU216HW,2013-03-25 00:30:00,
2013-03-24 20:35:00,30.4,28.2,29.51,NW,315,15.7,15.7,91,0.00,,,0.06,WUHU216HW,2013-03-25 00:35:00,
2013-03-24 20:40:00,30.4,28.2,29.51,NW,315,15.7,15.7,91,0.00,,,0.06,WUHU216HW,2013-03-25 00:40:00,
2013-03-24 21:00:00,30.1,27.8,29.52,NNE,23,4.0,4.0,91,0.00,,,0.06,WUHU216HW,2013-03-25 01:00:00,
2013-03-24 21:05:00,30.1,27.8,29.52,NNE,23,4.0,4.0,91,0.00,,,0.06,WUHU216HW,2013-03-25 01:05:00,
2013-03-24 21:10:00,30.1,27.8,29.52,NNE,23,4.0,4.0,91,0.00,,,0.06,WUHU216HW,2013-03-25 01:10:00,
2013-03-24 21:30:00,29.5,27.3,29.52,North,0,0.0,0.0,91,0.00,,,0.06,WUHU216HW,2013-03-25 01:30:00,
2013-03-24 21:35:00,29.5,27.3,29.52,North,0,0.0,0.0,91,0.00,,,0.06,WUHU216HW,2013-03-25 01:35:00,
2013-03-24 21:40:00,29.5,27.3,29.52,North,0,0.0,0.0,91,0.00,,,0.06,WUHU216HW,2013-03-25 01:40:00,
2013-03-24 22:00:00,29.5,27.6,29.53,North,0,0.0,0.0,92,0.00,,,0.06,WUHU216HW,2013-03-25 02:00:00,
2013-03-24 22:05:00,29.5,27.6,29.53,North,0,0.0,0.0,92,0.00,,,0.06,WUHU216HW,2013-03-25 02:05:00,
2013-03-24 22:10:00,29.5,27.6,29.53,North,0,0.0,0.0,92,0.00,,,0.06,WUHU216HW,2013-03-25 02:10:00,
2013-03-24 22:30:00,29.9,27.9,29.52,North,0,0.0,0.0,92,0.00,,,0.06,WUHU216HW,2013-03-25 02:30:00,
2013-03-24 22:35:00,29.9,27.9,29.52,North,0,0.0,0.0,92,0.00,,,0.06,WUHU216HW,2013-03-25 02:35:00,
2013-03-24 22:40:00,29.9,27.9,29.52,North,0,0.0,0.0,92,0.00,,,0.06,WUHU216HW,2013-03-25 02:40:00,
2013-03-24 23:00:00,29.5,27.3,29.52,North,0,0.0,0.0,91,0.00,,,0.06,WUHU216HW,2013-03-25 03:00:00,
2013-03-24 23:05:00,29.5,27.3,29.52,North,0,0.0,0.0,91,0.00,,,0.06,WUHU216HW,2013-03-25 03:05:00,
2013-03-24 23:30:00,29.7,27.5,29.52,North,0,0.0,0.0,91,0.00,,,0.06,WUHU216HW,2013-03-25 03:30:00,
2013-03-24 23:35:00,29.7,27.5,29.52,North,0,0.0,0.0,91,0.00,,,0.06,WUHU216HW,2013-03-25 03:35:00,
2013-03-24 23:40:00,29.7,27.5,29.52,North,0,0.0,0.0,91,0.00,,,0.06,WUHU216HW,2013-03-25 03:40:00,